[[{"header":{"parameterUnit":"m.s-1","parameterCategory":1,"la1":30.2991,"la2":30.254,"lo1":-89.0895,"lo2":-89.0444,"dy":0.0017,"dx":0.0017,"nx":28,"ny":28,"refTime":"2025-12-12T09:00:00:Z","depth":0,"parameterNumber":2,"parameterNumberName":"U-component_of_WINDS"},"data":[0,0,0,0,0,0,0,0,0,0,0,0,0,0,0,0,0,0,0,0,0,0,0,0,0,0,0,0,0,0,0,0,0,0,0,0,0,0,0,0,0,0,0,0,0,0,0,0,0,0,0,0,0,0,0,0,0,0,-2.2649,-2.2649,0,-2.2623,-2.2623,-2.2622,-2.2539,-2.2537,-2.2535,-2.2534,-2.2509,-2.251,-2.2511,0,0,0,0,0,0,0,0,0,0,0,0,0,-2.2629,-2.263,-2.2649,-2.2649,-2.2648,-2.2623,-2.2623,-2.2622,-2.254,-2.2537,-2.2535,-2.2533,-2.2509,-2.251,-2.2511,0,0,0,0,0,0,0,0,0,0,0,0,0,-2.2624,-2.263,-2.2649,-2.2604,-2.26,-2.2623,-2.2623,-2.2622,-2.254,-2.2537,-2.2534,-2.2532,-2.2508,-2.251,-2.2511,-2.2577,0,0,-2.2516,-2.2517,0,0,0,0,0,0,0,0,-2.2624,-2.2625,-2.2611,-2.2607,-2.2602,-2.2581,-2.2606,-2.2607,-2.2541,-2.2563,-2.2534,-2.253,-2.2535,-2.2535,-2.2536,-2.2576,-2.2575,-2.2516,-2.2517,-2.2518,-2.2518,0,0,0,0,0,0,0,-2.2625,-2.2625,-2.2639,-2.2611,-2.2605,-2.2586,-2.2582,-2.2606,-2.2565,-2.2561,-2.2554,-2.2552,-2.2533,-2.2535,-2.2535,-2.2574,-2.2516,-2.2518,-2.2519,-2.2519,-2.2667,-2.267,0,0,0,0,0,0,-2.2631,-2.2626,-2.2639,-2.2638,-2.2606,-2.2588,-2.2584,-2.2591,-2.2564,-2.2558,-2.2555,-2.2549,-2.2533,-2.2533,-2.2534,-2.2608,-2.2518,-2.2519,-2.252,-2.2664,-2.2668,-2.2671,0,0,0,0,0,0,-2.2631,-2.2633,-2.264,-2.263,-2.263,-2.2592,-2.26,-2.2592,-2.2594,-2.256,-2.2553,-2.2564,-2.2531,-2.2531,-2.2567,-2.2606,-2.252,-2.2522,-2.2661,-2.2665,-2.267,-2.2759,0,0,0,0,0,0,-2.2631,-2.2634,-2.2657,-2.2631,-2.2631,-2.2674,-2.2602,-2.2593,-2.2597,-2.2588,-2.2567,-2.2561,-2.2529,-2.2565,-2.2568,-2.2607,-2.2523,-2.2657,-2.2663,-2.2668,-2.2752,-2.2766,-2.2778,0,0,0,0,0,-2.263,-2.2684,-2.2659,-2.2661,-2.266,-2.2676,-2.2676,-2.2637,-2.26,-2.2624,-2.2603,-2.2562,-2.2602,-2.2569,-2.2572,-2.2612,-2.2654,-2.2661,-2.2668,-2.2747,-2.2763,-2.2777,0,0,0,0,0,0,-2.2716,-2.268,-2.2652,-2.2698,-2.2691,-2.2662,-2.2691,-2.2656,-2.2659,-2.2651,-2.2604,-2.26,-2.2642,-2.2631,-2.2595,-2.2675,-2.2621,-2.2629,-2.268,-2.2696,-2.2708,-2.2709,-2.2524,0,0,0,0,0,-2.274,-2.2756,-2.2724,-2.2768,-2.2766,-2.2729,-2.2735,-2.2706,-2.2697,-2.2693,-2.2674,-2.2668,-2.2678,-2.2687,-2.2695,-2.2751,-2.2745,-2.278,-2.2793,-2.2803,-2.281,-2.2839,-2.2854,-2.2693,-2.2693,-2.2693,0,0,-2.279,-2.2772,-2.2785,-2.2785,-2.2775,-2.2793,-2.2727,-2.2749,-2.2762,-2.2697,-2.2728,-2.2715,-2.2704,-2.275,-2.277,-2.2742,-2.2854,-2.2812,-2.282,-2.2821,-2.2847,-2.2863,-2.2876,-2.2698,-2.2697,-2.2696,0,0,-2.289,-2.2879,-2.2914,-2.2906,-2.2893,-2.2869,-2.2878,-2.2855,-2.2843,-2.2875,-2.2826,-2.2842,-2.2862,-2.2856,-2.2856,-2.2956,-2.2918,-2.296,-2.3026,-2.3055,-2.3067,-2.3078,-2.3113,-2.3127,-2.2967,-2.2968,-2.2968,0,-2.2954,-2.2978,-2.2937,-2.2962,-2.2963,-2.2905,-2.2941,-2.2936,-2.2927,-2.293,-2.2899,-2.2923,-2.2912,-2.2956,-2.2981,-2.2983,-2.2991,-2.2961,-2.3069,-2.3079,-2.3089,-2.3122,-2.3136,-2.2973,-2.2972,-2.2972,-2.2971,0,-2.3058,-2.3076,-2.3106,-2.3098,-2.3103,-2.3134,-2.3098,-2.3108,-2.308,-2.3059,-2.3092,-2.3077,-2.3081,-2.309,-2.3062,-2.3131,-2.3114,-2.3077,-2.3022,-2.311,-2.314,-2.3153,-2.298,-2.2978,-2.2977,-2.2975,0,0,-2.3209,-2.3179,-2.319,-2.3186,-2.3169,-2.3182,-2.3211,-2.3215,-2.3224,-2.3221,-2.3244,-2.3263,-2.3229,-2.3229,-2.32,-2.3226,-2.3306,-2.3185,-2.3184,-2.3208,-2.338,-2.3407,-2.3422,-2.3282,-2.3284,-2.3286,-2.338,0,-2.3303,-2.3349,-2.3313,-2.3366,-2.3382,-2.3329,-2.3354,-2.3346,-2.3328,-2.334,-2.3321,-2.3334,-2.3289,-2.3288,-2.3311,-2.3291,-2.334,-2.3284,-2.3302,-2.3303,-2.3305,-2.3438,-2.3466,-2.3556,-2.3392,-2.3394,-2.3396,0,-2.3418,-2.342,-2.3474,-2.3454,-2.3459,-2.3482,-2.3483,-2.3495,-2.3486,-2.3471,-2.3472,-2.3438,-2.3465,-2.3413,-2.345,-2.3413,-2.3419,-2.341,-2.3413,-2.3412,-2.3354,-2.344,-2.3584,-2.3598,-2.3414,-2.3412,-2.3411,0,-2.3522,-2.3538,-2.3572,-2.3571,-2.3548,-2.3565,-2.3557,-2.3545,-2.355,-2.3552,-2.3554,-2.356,-2.3562,-2.3568,-2.3536,-2.3501,-2.3577,-2.3522,-2.3566,-2.3567,-2.3583,-2.3582,-2.3729,-2.3589,-2.3589,-2.3589,-2.3588,0,-2.363,-2.3666,-2.3619,-2.364,-2.3678,-2.3638,-2.3677,-2.3663,-2.3653,-2.3671,-2.3626,-2.3644,-2.3601,-2.3615,-2.359,-2.3625,-2.3627,-2.3616,-2.3609,-2.3619,-2.362,-2.3621,-2.3613,-2.3592,-2.3591,-2.3591,-2.359,0,-2.3752,-2.3722,-2.3756,-2.3732,-2.3727,-2.3756,-2.3736,-2.3755,-2.3735,-2.3758,-2.3762,-2.373,-2.3744,-2.3713,-2.3723,-2.3707,-2.3756,-2.3739,-2.3758,-2.3753,-2.3798,-2.3794,-2.395,-2.3968,-2.3817,-2.3819,-2.382,0,-2.3822,-2.3848,-2.3827,-2.3836,-2.3829,-2.3844,-2.3849,-2.3811,-2.3818,-2.3811,-2.3831,-2.3841,-2.3847,-2.3873,-2.3851,-2.3859,-2.3841,-2.3896,-2.3842,-2.3852,-2.3841,-2.3839,-2.3842,-2.3906,-2.3908,-2.3909,-2.3911,0,-2.3949,-2.3934,-2.3942,-2.3946,-2.3954,-2.3955,-2.3953,-2.3963,-2.3923,-2.3934,-2.3947,-2.3952,-2.3963,-2.3973,-2.3976,-2.3968,-2.3933,-2.3928,-2.3938,-2.3948,-2.3958,-2.3953,-2.3787,-2.3924,-2.3923,-2.3922,-2.3921,-2.392,-2.4046,-2.4067,-2.4056,-2.4067,-2.4062,-2.4062,-2.4078,-2.4061,-2.4071,-2.4076,-2.4054,-2.4073,-2.4065,-2.4065,-2.4061,-2.4075,-2.4051,-2.4066,-2.4069,-2.4073,-2.408,-2.3957,-2.4076,-2.4075,-2.4075,-2.4075,-2.4074,0,-2.417,-2.4161,-2.4172,-2.4171,-2.4181,-2.4147,-2.4144,-2.4154,-2.4171,-2.4166,-2.4173,-2.419,-2.4201,-2.4181,-2.4188,-2.4204,-2.4188,-2.4207,-2.4205,-2.4204,-2.4102,-2.4092,-2.422,-2.422,-2.422,-2.422,-2.422,-2.422,-2.4236,-2.4269,-2.4252,-2.4283,-2.4273,-2.4291,-2.4292,-2.4292,-2.4288,-2.4308,-2.4317,-2.4304,-2.4293,-2.43,-2.4308,-2.4302,-2.4307,-2.4332,-2.432,-2.4225,-2.4211,-2.4197,-2.4187,-2.4333,-2.4333,-2.442,-2.442,-2.4421]},{"header":{"parameterUnit":"m.s-1","parameterCategory":1,"la1":30.2991,"la2":30.254,"lo1":-89.0895,"lo2":-89.0444,"dy":0.0017,"dx":0.0017,"nx":28,"ny":28,"refTime":"2025-12-12T09:00:00:Z","depth":0,"parameterNumber":3,"parameterNumberName":"V-component_of_WINDS"},"data":[0,0,0,0,0,0,0,0,0,0,0,0,0,0,0,0,0,0,0,0,0,0,0,0,0,0,0,0,0,0,0,0,0,0,0,0,0,0,0,0,0,0,0,0,0,0,0,0,0,0,0,0,0,0,0,0,0,0,-0.4197,-0.4196,0,-0.4115,-0.4115,-0.4114,-0.4038,-0.4037,-0.4036,-0.4036,-0.3952,-0.3951,-0.395,0,0,0,0,0,0,0,0,0,0,0,0,0,-0.4288,-0.4287,-0.4197,-0.4196,-0.4195,-0.4116,-0.4114,-0.4113,-0.4038,-0.4037,-0.4036,-0.4035,-0.3953,-0.3951,-0.395,0,0,0,0,0,0,0,0,0,0,0,0,0,-0.4232,-0.4286,-0.4197,-0.4148,-0.4143,-0.4116,-0.4114,-0.4113,-0.4039,-0.4037,-0.4036,-0.4035,-0.3953,-0.3951,-0.3949,-0.3965,0,0,-0.3943,-0.3942,0,0,0,0,0,0,0,0,-0.4235,-0.4229,-0.4156,-0.4151,-0.4145,-0.4086,-0.4116,-0.4063,-0.4039,-0.4078,-0.4036,-0.4034,-0.3998,-0.3992,-0.398,-0.3961,-0.3957,-0.3943,-0.3942,-0.3941,-0.394,0,0,0,0,0,0,0,-0.4239,-0.4232,-0.4165,-0.4155,-0.4149,-0.413,-0.4121,-0.4106,-0.4047,-0.4075,-0.4069,-0.406,-0.3995,-0.3982,-0.3977,-0.3956,-0.3943,-0.3941,-0.394,-0.3939,-0.3946,-0.3947,0,0,0,0,0,0,-0.4251,-0.4235,-0.4167,-0.4162,-0.4188,-0.413,-0.4119,-0.4106,-0.4047,-0.4036,-0.4062,-0.4057,-0.3986,-0.398,-0.3974,-0.3988,-0.3941,-0.3939,-0.3938,-0.3944,-0.3946,-0.3947,0,0,0,0,0,0,-0.4253,-0.4245,-0.4171,-0.4197,-0.4186,-0.413,-0.4116,-0.4105,-0.4092,-0.4037,-0.4026,-0.4059,-0.3985,-0.3977,-0.3968,-0.3984,-0.3938,-0.3936,-0.3943,-0.3945,-0.3947,-0.4016,0,0,0,0,0,0,-0.4256,-0.4246,-0.4251,-0.4198,-0.4185,-0.4165,-0.4117,-0.4105,-0.4089,-0.4083,-0.4032,-0.4022,-0.3983,-0.3971,-0.3966,-0.398,-0.3935,-0.3941,-0.3944,-0.3946,-0.4012,-0.402,-0.4027,0,0,0,0,0,-0.4259,-0.4274,-0.4252,-0.4244,-0.419,-0.4166,-0.4159,-0.4114,-0.4091,-0.4095,-0.406,-0.4024,-0.3983,-0.3971,-0.3964,-0.3978,-0.394,-0.3943,-0.3946,-0.4008,-0.4018,-0.4027,0,0,0,0,0,0,-0.433,-0.4266,-0.4241,-0.4239,-0.4209,-0.4154,-0.4158,-0.4126,-0.4101,-0.4096,-0.4041,-0.403,-0.4027,-0.4002,-0.3989,-0.399,-0.3957,-0.3959,-0.4007,-0.4016,-0.4023,-0.4029,-0.3933,0,0,0,0,0,-0.4346,-0.4332,-0.4277,-0.428,-0.4266,-0.4215,-0.4203,-0.4171,-0.4137,-0.4124,-0.4088,-0.4057,-0.4037,-0.4025,-0.4004,-0.4008,-0.3996,-0.4015,-0.4023,-0.4029,-0.4031,-0.4032,-0.4039,-0.3958,-0.3958,-0.3958,0,0,-0.4378,-0.4341,-0.4335,-0.4294,-0.4266,-0.4253,-0.4205,-0.4193,-0.4182,-0.4122,-0.4111,-0.4084,-0.4045,-0.4043,-0.404,-0.4022,-0.4051,-0.4033,-0.4039,-0.4037,-0.4036,-0.4044,-0.4051,-0.396,-0.3959,-0.3959,0,0,-0.4429,-0.44,-0.4399,-0.4373,-0.4333,-0.4299,-0.4299,-0.4249,-0.4229,-0.4217,-0.4171,-0.4159,-0.4126,-0.4101,-0.4083,-0.4127,-0.4093,-0.4121,-0.4161,-0.4162,-0.4169,-0.4174,-0.4189,-0.4195,-0.4124,-0.4124,-0.4124,0,-0.4473,-0.4451,-0.4403,-0.4394,-0.4377,-0.4323,-0.4322,-0.4299,-0.4254,-0.4244,-0.4224,-0.4182,-0.4153,-0.4144,-0.4155,-0.4143,-0.4141,-0.4126,-0.4172,-0.4176,-0.4181,-0.4195,-0.4201,-0.4128,-0.4127,-0.4127,-0.4126,0,-0.4508,-0.4494,-0.4498,-0.4456,-0.444,-0.4436,-0.4387,-0.4377,-0.4346,-0.4315,-0.4304,-0.4266,-0.4237,-0.4233,-0.4203,-0.422,-0.421,-0.4182,-0.4147,-0.4193,-0.4205,-0.421,-0.4133,-0.4132,-0.413,-0.413,0,0,-0.46,-0.4532,-0.4535,-0.4515,-0.4468,-0.4456,-0.4449,-0.442,-0.4412,-0.4384,-0.4376,-0.4351,-0.4325,-0.4305,-0.4272,-0.4274,-0.431,-0.4245,-0.4244,-0.4258,-0.4327,-0.4348,-0.4354,-0.4288,-0.4289,-0.4289,-0.433,0,-0.4642,-0.4626,-0.4584,-0.4581,-0.4568,-0.4517,-0.4511,-0.4481,-0.4452,-0.4436,-0.4404,-0.4386,-0.4353,-0.4341,-0.4341,-0.4306,-0.4323,-0.4303,-0.4281,-0.428,-0.4291,-0.4361,-0.4382,-0.4422,-0.4334,-0.4335,-0.4336,0,-0.4689,-0.4664,-0.466,-0.4614,-0.4606,-0.4602,-0.4572,-0.4558,-0.4524,-0.4502,-0.4482,-0.4446,-0.4436,-0.4405,-0.4391,-0.4378,-0.4367,-0.4349,-0.4349,-0.4344,-0.431,-0.4357,-0.4433,-0.4439,-0.4342,-0.4342,-0.4341,0,-0.4756,-0.4721,-0.4714,-0.4699,-0.4645,-0.4643,-0.4621,-0.4585,-0.4571,-0.4545,-0.4535,-0.451,-0.4495,-0.4476,-0.4434,-0.4415,-0.4425,-0.439,-0.4407,-0.4408,-0.441,-0.441,-0.4485,-0.4405,-0.4405,-0.4405,-0.4405,0,-0.4807,-0.4806,-0.4744,-0.4739,-0.4738,-0.4689,-0.4689,-0.4662,-0.4631,-0.462,-0.4575,-0.4567,-0.4512,-0.4497,-0.4465,-0.4458,-0.4452,-0.4435,-0.4426,-0.4438,-0.444,-0.4429,-0.4425,-0.4406,-0.4406,-0.4406,-0.4405,0,-0.488,-0.4838,-0.4827,-0.4778,-0.4765,-0.4766,-0.4723,-0.4718,-0.4686,-0.4674,-0.4668,-0.4619,-0.46,-0.4556,-0.4525,-0.4503,-0.4505,-0.4489,-0.4516,-0.4511,-0.453,-0.4528,-0.4599,-0.4606,-0.4523,-0.4523,-0.4524,0,-0.4915,-0.4913,-0.4864,-0.4854,-0.4833,-0.4818,-0.4803,-0.4756,-0.4743,-0.4704,-0.4703,-0.468,-0.4659,-0.4631,-0.4592,-0.4569,-0.4552,-0.4578,-0.4547,-0.456,-0.4551,-0.4551,-0.4551,-0.4584,-0.4586,-0.4587,-0.4587,0,-0.498,-0.496,-0.4941,-0.4915,-0.4899,-0.4876,-0.4851,-0.4845,-0.4792,-0.478,-0.4759,-0.4743,-0.4712,-0.469,-0.466,-0.4637,-0.4604,-0.4598,-0.46,-0.4612,-0.4627,-0.4619,-0.4534,-0.4596,-0.4595,-0.4594,-0.4594,-0.4593,-0.5034,-0.5031,-0.4996,-0.4976,-0.4953,-0.493,-0.4923,-0.4891,-0.4873,-0.4844,-0.4818,-0.48,-0.4767,-0.4724,-0.4703,-0.4689,-0.4672,-0.4676,-0.4676,-0.4678,-0.4683,-0.4631,-0.4683,-0.4683,-0.4683,-0.4683,-0.4682,0,-0.5097,-0.5073,-0.5055,-0.5022,-0.5006,-0.4977,-0.4948,-0.4937,-0.4922,-0.4894,-0.4875,-0.4852,-0.4831,-0.4791,-0.4767,-0.4763,-0.4747,-0.4758,-0.4757,-0.4752,-0.47,-0.47,-0.4771,-0.4771,-0.4771,-0.4771,-0.4771,-0.4771,-0.5128,-0.5121,-0.5097,-0.5077,-0.5053,-0.5035,-0.5021,-0.5,-0.4978,-0.4954,-0.4937,-0.4911,-0.4879,-0.4852,-0.4831,-0.482,-0.4813,-0.4829,-0.4813,-0.4764,-0.4756,-0.4748,-0.4748,-0.4828,-0.4828,-0.4866,-0.4867,-0.4867]}]]